Location: Arcusa
(42.3167°N, 0.0833°W)
Time: 17:04:49
(UTC+00:00)

STARLINK-1053 - Pass Details

Date: 25 January 2020
Orbit: 548 x 550 km, 53.0° (Epoch: 19 February)

Event Time Altitude Azimuth Distance (km) Brightness Sun altitude
Exits shadow 05:09:38 - 185° (S) 2,437 6.9 -24.2°
Reaches altitude 10° 05:11:42 10° 169° (S) 1,810 6.4 -23.8°
Drops below altitude 10° 05:17:07 10° 87° (E) 1,817 7.4 -22.8°
Enters shadow 06:19:46 -60° 232° (SW) 11,630 10.2 -11.4°
Maximum altitude 06:53:29 75° 324° (NW) 569 3.6 -5.5°
